Other Public Products
Issued by NWS Grand Forks, ND

Home | Current Version | Previous Version | Graphics & Text | Print | Product List | Glossary On
Versions: 1 2 3 4 5 6 7 8 9 10 11 12 13 14 15 16 17 18 19 20 21 22 23 24 25 26 27 28 29 30 31 32 33 34 35 36 37 38 39 40 41 42 43 44 45 46 47 48 49 50
000
FPUS83 KFGF 231231
OPUFGF
PRAIRIE TO PINES WEATHER ROUNDUP
NATIONAL WEATHER SERVICE EASTERN NORTH DAKOTA/GRAND FORKS ND
700 AM CDT SAT AUG 23 2014

 **SATELLITE DATA USED TO AUGMENT SKY COVER AT AUTOMATED STATIONS**
 *****  WEATHER ACROSS EASTERN NORTH DAKOTA  *****

CITY           SKY/WX    TMP DP  RH WIND       PRES   REMARKS
GRAND FORKS    CLOUDY    61  59  94 N13       30.05S
6HR MIN TEMP:  60; 6HR MAX TEMP:  63; 6HR PCP:  0.13;

GRAND FORKS AF CLOUDY    59  59 100 N10       30.07S
GRAND CITY NWS   N/A     39 N/A N/A VRB2        N/A
BUXTON           N/A     62  62  99 N12         N/A
DEVILS LAKE    CLOUDY    57  52  82 NE15      30.07S
6HR MIN TEMP:  57; 6HR MAX TEMP:  61;

FARGO          FOG       65  64  97 NE7       30.01S VSB 3/4
6HR MIN TEMP:  64; 6HR MAX TEMP:  67;

WAHPETON ARPT  CLOUDY    66  63  88 NE5       30.00F
$$

 *****  WEATHER ACROSS CENTRAL AND WESTERN NORTH DAKOTA  *****

CITY           SKY/WX    TMP DP  RH WIND       PRES   REMARKS
JAMESTOWN      CLOUDY    60  59  96 NE8       30.03S FOG
6HR MIN TEMP:  61; 6HR MAX TEMP:  64;

BISMARCK       CLOUDY    62  58  86 NE16      30.03S
6HR MIN TEMP:  62; 6HR MAX TEMP:  65;

MINOT          CLOUDY    56  54  93 N10       30.09F
6HR MIN TEMP:  56; 6HR MAX TEMP:  61;

MINOT AFB      CLOUDY    56  56  99 NE12      30.09F
6HR MIN TEMP:  56; 6HR MAX TEMP:  61;

GARRISON         N/A     58  56  93 E13       30.07R
6HR MIN TEMP:  58; 6HR MAX TEMP:  63;

WILLISTON      CLOUDY    58  52  80 NE16      30.07F
6HR MIN TEMP:  58; 6HR MAX TEMP:  63; 6HR PCP: TRACE;

DICKINSON      LGT RAIN  59  58  96 E20       30.00R FOG
6HR MIN TEMP:  59; 6HR MAX TEMP:  62; 6HR PCP:  0.02;

HETTINGER      LGT RAIN  62  60  93 E18G26    29.97F
6HR MIN TEMP:  62; 6HR MAX TEMP:  65; 6HR PCP:  0.02;

$$

 *****  OTHER OBSERVATIONS NORTHEAST NORTH DAKOTA  *****

CITY           SKY/WX    TMP DP  RH WIND       PRES   REMARKS
WALHALLA       FOG       55  55 100 N12G17    30.12S VSB 1
LANGDON        CLOUDY    55  55 100 NE14G21   30.11S
CAVALIER       CLOUDY    55  55 100 N9        30.11S FOG
GRAFTON        CLOUDY    57  57 100 N13       30.08S
CANDO          CLOUDY    55  54  94 NE13G18   30.11S
FORT TOTTEN    NOT AVBL
ROLLA          CLOUDY    54  54 100 NE13      30.14S FOG
RUGBY          CLOUDY    55  55 100 NE14G21   30.10S
 ***** THE ABOVE OBSERVATIONS ARE NON NWS ARE NOT QUALITY
        CONTROLLED AND MAY MIS-REPORT RAIN FOR SNOW...
$$

 *****  OTHER OBSERVATIONS SOUTHEAST NORTH DAKOTA *****

CITY           SKY/WX    TMP DP  RH WIND       PRES   REMARKS
COOPERSTOWN    NOT AVBL
VALLEY CITY    FOG       59  59 100 NE10      30.03S VSB 3/4
OAKES          FOG       63  63 100 NE10      30.00F VSB 1
GWINNER        CLOUDY    64  64 100 NE12      30.01F VSB 1/2
BUFFALO          N/A     61  59  92 NE13        N/A
WYNDMERE       NOT AVBL
 ***** THE ABOVE OBSERVATIONS ARE NON NWS ARE NOT QUALITY
       CONTROLLED AND MAY MIS-REPORT RAIN FOR SNOW...
$$

  *****  WEATHER ACROSS NORTHERN MINNESOTA  *****

CITY           SKY/WX    TMP DP  RH WIND       PRES   REMARKS
FLAG ISLAND    MOCLDY    66  64  94 NE8       30.07S
WARROAD        FOG       61  57  88 NW5       30.09S VSB 1/4
ROSEAU         HAZE      63  55  77 N8        30.09S VSB 3/4
HALLOCK        CLOUDY    59  57  94 N9        30.09S FOG
THF RVR FALLS  CLOUDY    64  63  94 NE8       30.06R VSB 1/2
6HR MIN TEMP:  63; 6HR MAX TEMP:  64;

HALSTAD          N/A     65  63  93 N9          N/A
FOSSTON        CLOUDY    64  64 100 CALM      30.05F
BAUDETTE       CLOUDY    64  63  96 NE5       30.07S
6HR MIN TEMP:  59; 6HR MAX TEMP:  64;

WASKISH        FOG       64  63  94 CALM      30.07R VSB 1/2
CROOKSTON      FOG       63  63 100 N7        30.04F VSB 1/2
$$
  *****  WEATHER ACROSS CENTRAL AND WEST MINNESOTA  *****

CITY           SKY/WX    TMP DP  RH WIND       PRES   REMARKS
BEMIDJI        CLOUDY    67  66  99 CALM      30.05S
PARK RAPIDS    CLOUDY    67  66  97 SE6       30.04S FOG
6HR MIN TEMP:  65; 6HR MAX TEMP:  67;

WADENA         CLOUDY    64  64 100 SE3       30.04S FOG
DETROIT LAKES  CLOUDY    68  66  94 SE5       30.05S FOG
MOORHEAD       FOG       66  66 100 NE5       30.02S VSB 1/4
FERGUS FALLS   CLOUDY    70  66  88 E3        30.01R
ELBOW LAKE     CLOUDY    68  67  96 E7        30.01S
6HR MIN TEMP:  65; 6HR MAX TEMP:  69;

MORRIS MN      CLOUDY    70  68  94 E8        29.99F FOG
STAPLES        CLOUDY    64  64 100 CALM      30.04S FOG
WHEATON        CLOUDY    64  64 100 NE6       30.01S
$$
  *****  WEATHER ELSEWHERE ACROSS MINNESOTA  *****

CITY           SKY/WX    TMP DP  RH WIND       PRES   REMARKS
DULUTH         CLOUDY    63  59  87 E7        30.07R
6HR MIN TEMP:  60; 6HR MAX TEMP:  63;

INTRNTL FALLS  FOG       64  64 100 NE5       30.07R VSB 1/4
6HR MIN TEMP:  56; 6HR MAX TEMP:  64;

ELY            CLOUDY    64  63  94 CALM      30.09R
CLOQUET        CLOUDY    63  61  94 NE5       30.07S
BRAINERD       CLOUDY    62  62 100 E6        30.05S
6HR MIN TEMP:  62; 6HR MAX TEMP:  65;

HIBBING        CLOUDY    65  62  90 E3        30.08R
6HR MIN TEMP:  64; 6HR MAX TEMP:  67; 6HR PCP: TRACE;

ALEXANDRIA     CLOUDY    67  65  93 E5        30.04R
6HR MIN TEMP:  67; 6HR MAX TEMP:  71;

SAINT CLOUD    CLOUDY    66  63  90 E5        30.03S
6HR MIN TEMP:  66; 6HR MAX TEMP:  69;

MINNEAPOLIS    CLOUDY    70  68  93 NE7       30.00S
6HR MIN TEMP:  69; 6HR MAX TEMP:  70;

$$

  *****  WEATHER ACROSS SOUTH DAKOTA  *****

CITY           SKY/WX    TMP DP  RH WIND       PRES   REMARKS
SIOUX FALLS    CLOUDY    69  67  93 E7        29.90R
6HR MIN TEMP:  69; 6HR MAX TEMP:  73; 6HR PCP:  0.97;

BROOKINGS      NOT AVBL
WATERTOWN      LGT RAIN  68  67  96 E8        29.95F
6HR MIN TEMP:  66; 6HR MAX TEMP:  68; 6HR PCP: TRACE;

HURON          CLOUDY    71  68  90 E13G22    29.84F
6HR MIN TEMP:  70; 6HR MAX TEMP:  72; 6HR PCP:  0.16;

SISSETON         N/A     66  66 100 NE3       29.98F
ABERDEEN       LGT RAIN  63  63 100 NE14      29.94F FOG
6HR MIN TEMP:  64; 6HR MAX TEMP:  65; 6HR PCP: TRACE;

MITCHELL       CLOUDY    70  68  93 E8        29.85S
PIERRE         LGT RAIN  67  67 100 E17G23    29.85S FOG
6HR MIN TEMP:  67; 6HR MAX TEMP:  69; 6HR PCP:  0.03;

MOBRIDGE       LGT RAIN  63  63 100 E20G29    29.92S FOG
RAPID CITY     LGT RAIN  64  60  87 CALM      29.91F
6HR MIN TEMP:  63; 6HR MAX TEMP:  69; 6HR PCP:  0.03;

$$

  *****  SOME WEATHER IN NEARBY STATES *****

CITY           SKY/WX    TMP DP  RH WIND       PRES   REMARKS
GLASGOW MT     RAIN      56  54  93 NE22G30   30.03F FOG
6HR MIN TEMP:  56; 6HR MAX TEMP:  62; 6HR PCP:  0.39;

GREAT FALLS MT RAIN      48  48 100 NW16      30.08S FOG
6HR MIN TEMP:  48; 6HR MAX TEMP:  49; 6HR PCP:  0.53;

CHEYENNE WY    CLOUDY    56  55  97 SW5       30.00S
6HR MIN TEMP:  56; 6HR MAX TEMP:  58; 6HR PCP:  0.03;

SCOTTSBLUFF NE CLOUDY    63  61  93 CALM      29.92F
6HR MIN TEMP:  61; 6HR MAX TEMP:  64;

OMAHA NE       CLOUDY    72  67  84 E6        29.88F
6HR MIN TEMP:  71; 6HR MAX TEMP:  77; 6HR PCP:  0.59;

DES MOINES IA  LGT RAIN  73  70  90 E10       29.89F
6HR MIN TEMP:  72; 6HR MAX TEMP:  79; 6HR PCP:  0.91;

DAVENPORT IA   CLOUDY    75  73  93 SE6       29.95S FOG
6HR MIN TEMP:  73; 6HR MAX TEMP:  75;

CHICAGO IL     FOG       74  72  93 CALM      29.98R VSB 3/4
6HR MIN TEMP:  73; 6HR MAX TEMP:  77;

EAU CLAIRE WI  CLOUDY    68  68 100 NE3       29.99S FOG
6HR MIN TEMP:  68; 6HR MAX TEMP:  70;

LA CROSSE WI   CLOUDY    73  70  90 NE3       29.95F
6HR MIN TEMP:  72; 6HR MAX TEMP:  74;

$$

  *****  SOME NATIONAL WEATHER *****

CITY           SKY/WX    TMP DP  RH WIND       PRES   REMARKS
LA GUARDIA NY  PTSUNNY   68  60  75 E12       30.08R



USA.gov is the U.S. government's official web portal to all federal, state and local government web resources and services.